Location: Tucson
(32.2217°N, 110.9265°W)
Time: 07:58:35
(UTC-07:00)

Tiros 1 - Pass Details

Date: 30 October 2021
Orbit: 629 x 664 km, 48.4° (Epoch: 27 November)

Event Time Altitude Azimuth Distance (km) Brightness Sun altitude
Rises 16:11:20 0° 287° (WNW) 2,945 11.3 15.5°
Reaches altitude 10° 16:14:59 10° 258° (WSW) 2,022 11.6 14.9°
Maximum altitude 16:16:55 12° 233° (SW) 1,856 12.0 14.5°
Drops below altitude 10° 16:18:50 10° 208° (SSW) 2,009 10.8 14.1°
Sets 16:22:27 0° 179° (S) 2,905 10.9 13.5°
